Tracking 27380 objects as of 6-Jun-2023
HD Live streaming from Space Station
objects crossing your sky now

CZ-4 DEB

Track CZ-4 DEB now!
10-day predictions


NORAD ID: 23254
Int'l Code: 1990-081CK
Perigee: 724.6 km
Apogee: 822.9 km
Inclination: 98.6 °
Period: 100.2 minutes
Semi major axis: 7144 km
RCS: 0.0074 m2 (small)
Launch date: September 3, 1990
Source: People's Republic of China (PRC)
Launch site: Taiyaun Space Center, China (TSC)

Note: This is SATELLITE DEBRIS
Your satellite tracking list
Your tracking list is empty




NASA's NSSDC Master Catalog

Two Line Element Set (TLE):
1 23254U 90081CK  23156.62832519  .00000933  00000-0  31792-3 0  9997
2 23254  98.6094 206.1508 0068774 281.3436 232.9659 14.37548725518281
Source of the keplerian elements: AFSPC